When you browse on this site, cookies collect data to enhance your experience and personalize the content and advertising you see.
Visit our Privacy Policy to learn more. By continuing to use the site, you agree to this use of cookies and data.
  • En España
  • Lista de países
  • Para 7 días
  • Temperatura del agua
  • Mapa Satelital
  • El tiempo en el mapa
  • Informadores
  • user-avatar
    Iniciar sesión

    Tiempo cada hora Constantine

    Hoy, 20 Enero, Domingo

    Tiempo Temperatura Precipitaciones Viento Presión Humedad
    00:00 +5°C° 0 mm 1 mps 707 mmHg 90%
    01:00 +5°C° 0 mm 1 mps 707 mmHg 89%
    02:00 +5°C° 0 mm 1 mps 706 mmHg 89%
    03:00 +5°C° 0 mm 1 mps 706 mmHg 89%
    04:00 +4°C° 0 mm 1 mps 706 mmHg 89%
    05:00 +4°C° 0 mm 1 mps 706 mmHg 88%
    06:00 +3°C° 0 mm 2 mps 706 mmHg 88%
    07:00 +5°C° 0 mm 2 mps 706 mmHg 81%
    08:00 +6°C° 0 mm 2 mps 706 mmHg 75%
    09:00 +8°C° 0 mm 2 mps 706 mmHg 69%
    10:00 +9°C° 0 mm 3 mps 706 mmHg 61%
    11:00 +11°C° 0 mm 3 mps 706 mmHg 54%
    12:00 +12°C° 0 mm 4 mps 705 mmHg 46%
    13:00 +12°C° 0.3 mm 3 mps 705 mmHg 52%
    14:00 +11°C° 0.3 mm 3 mps 704 mmHg 58%
    15:00 +12°C° 0.3 mm 2 mps 704 mmHg 64%
    16:00 +10°C° 1.2 mm 2 mps 704 mmHg 71%
    17:00 +9°C° 1.2 mm 2 mps 703 mmHg 78%
    18:00 +9°C° 1.2 mm 1 mps 703 mmHg 85%
    19:00 +9°C° 0 mm 1 mps 703 mmHg 83%
    20:00 +8°C° 0 mm 2 mps 703 mmHg 82%
    21:00 +8°C° 0 mm 2 mps 703 mmHg 80%
    22:00 +7°C° 0 mm 2 mps 703 mmHg 82%
    23:00 +7°C° 0 mm 2 mps 703 mmHg 83%

    Mañana, 21 Enero, Lunes

    Tiempo Temperatura Precipitaciones Viento Presión Humedad
    00:00 +7°C° 0 mm 2 mps 703 mmHg 85%
    01:00 +6°C° 0 mm 2 mps 703 mmHg 86%
    02:00 +6°C° 0 mm 2 mps 703 mmHg 87%
    03:00 +6°C° 0 mm 2 mps 702 mmHg 89%
    04:00 +6°C° 0.2 mm 2 mps 703 mmHg 89%
    05:00 +6°C° 0.2 mm 2 mps 703 mmHg 89%
    06:00 +7°C° 0.2 mm 2 mps 703 mmHg 89%
    07:00 +7°C° 0 mm 3 mps 703 mmHg 84%
    08:00 +7°C° 0 mm 4 mps 703 mmHg 80%
    09:00 +8°C° 0 mm 4 mps 703 mmHg 75%
    10:00 +9°C° 0 mm 5 mps 703 mmHg 69%
    11:00 +10°C° 0 mm 5 mps 703 mmHg 62%
    12:00 +11°C° 0 mm 6 mps 703 mmHg 56%
    13:00 +10°C° 0.2 mm 6 mps 703 mmHg 61%
    14:00 +9°C° 0.2 mm 7 mps 703 mmHg 66%
    15:00 +8°C° 0.2 mm 7 mps 703 mmHg 71%
    16:00 +6°C° 0.8 mm 7 mps 704 mmHg 78%
    17:00 +5°C° 0.8 mm 8 mps 704 mmHg 84%
    18:00 +4°C° 0.8 mm 8 mps 704 mmHg 91%
    19:00 +4°C° 0.4 mm 7 mps 705 mmHg 91%
    20:00 +4°C° 0.4 mm 6 mps 706 mmHg 91%
    21:00 +5°C° 0.4 mm 5 mps 706 mmHg 91%
    22:00 +5°C° 0.1 mm 5 mps 706 mmHg 91%
    23:00 +4°C° 0.1 mm 4 mps 707 mmHg 91%

    Pasado mañana, 22 Enero, Martes

    Tiempo Temperatura Precipitaciones Viento Presión Humedad
    00:00 +4°C° 0.1 mm 3 mps 707 mmHg 91%
    01:00 +4°C° 0.1 mm 3 mps 707 mmHg 91%
    02:00 +4°C° 0.1 mm 3 mps 707 mmHg 91%
    03:00 +3°C° 0.1 mm 3 mps 707 mmHg 91%
    04:00 +4°C° 0 mm 2 mps 707 mmHg 91%
    05:00 +4°C° 0 mm 2 mps 707 mmHg 92%
    06:00 +3°C° 0 mm 2 mps 707 mmHg 92%
    07:00 +4°C° 0 mm 2 mps 707 mmHg 86%
    08:00 +4°C° 0 mm 3 mps 708 mmHg 80%
    09:00 +5°C° 0 mm 4 mps 708 mmHg 74%
    10:00 +6°C° 0 mm 4 mps 708 mmHg 69%
    11:00 +6°C° 0 mm 4 mps 708 mmHg 65%
    12:00 +7°C° 0 mm 4 mps 707 mmHg 60%
    13:00 +8°C° 0 mm 3 mps 707 mmHg 58%
    14:00 +8°C° 0 mm 3 mps 706 mmHg 57%
    15:00 +8°C° 0 mm 2 mps 705 mmHg 55%
    16:00 +7°C° 0.1 mm 2 mps 705 mmHg 62%
    17:00 +7°C° 0.1 mm 1 mps 704 mmHg 69%
    18:00 +4°C° 0.1 mm 0 mps 704 mmHg 76%
    19:00 +5°C° 0 mm 1 mps 704 mmHg 75%
    20:00 +5°C° 0 mm 1 mps 704 mmHg 75%
    21:00 +4°C° 0 mm 2 mps 703 mmHg 74%
    22:00 +3°C° 0 mm 3 mps 703 mmHg 74%
    23:00 +3°C° 0 mm 3 mps 702 mmHg 74%

    23 Enero, Miércoles

    Tiempo Temperatura Precipitaciones Viento Presión Humedad
    00:00 +3°C° 0 mm 4 mps 701 mmHg 74%
    01:00 +3°C° 0 mm 4 mps 700 mmHg 72%
    02:00 +3°C° 0 mm 4 mps 699 mmHg 70%
    03:00 +3°C° 0 mm 4 mps 698 mmHg 68%
    04:00 +3°C° 0.3 mm 4 mps 698 mmHg 72%
    05:00 +3°C° 0.3 mm 4 mps 697 mmHg 75%
    06:00 +3°C° 0.3 mm 3 mps 697 mmHg 79%
    07:00 +3°C° 0.3 mm 5 mps 697 mmHg 77%
    08:00 +3°C° 0.3 mm 6 mps 697 mmHg 74%
    09:00 +4°C° 0.3 mm 8 mps 697 mmHg 72%
    10:00 +4°C° 0.6 mm 8 mps 697 mmHg 72%
    11:00 +4°C° 0.6 mm 8 mps 697 mmHg 72%
    12:00 +2°C° 0.6 mm 8 mps 696 mmHg 72%
    13:00 +3°C° 1 mm 7 mps 696 mmHg 77%
    14:00 +2°C° 1 mm 7 mps 696 mmHg 83%
    15:00 +1°C° 1 mm 6 mps 695 mmHg 88%
    16:00 +1°C° 0.9 mm 4 mps 695 mmHg 90%
    17:00 +1°C° 0.9 mm 3 mps 695 mmHg 91%
    18:00 +3°C° 0.9 mm 1 mps 695 mmHg 93%
    19:00 +3°C° 1.8 mm 1 mps 695 mmHg 94%
    20:00 +1°C° 1.8 mm 2 mps 695 mmHg 95%
    21:00 +1°C° 1.8 mm 2 mps 695 mmHg 96%
    22:00 -1°C° 0.2 mm 2 mps 695 mmHg 94%
    23:00 -1°C° 0.2 mm 3 mps 695 mmHg 91%

    24 Enero, Jueves

    Tiempo Temperatura Precipitaciones Viento Presión Humedad
    00:00 -2°C° 0.2 mm 3 mps 695 mmHg 88%
    01:00 -2°C° 0 mm 3 mps 694 mmHg 88%
    02:00 -3°C° 0 mm 4 mps 694 mmHg 88%
    03:00 -3°C° 0 mm 4 mps 694 mmHg 87%
    04:00 -3°C° 0 mm 4 mps 694 mmHg 88%
    05:00 -3°C° 0 mm 4 mps 694 mmHg 88%
    06:00 -4°C° 0 mm 5 mps 694 mmHg 88%
    07:00 -3°C° 1 mm 6 mps 694 mmHg 89%
    08:00 -3°C° 1 mm 7 mps 695 mmHg 91%
    09:00 -2°C° 1 mm 8 mps 695 mmHg 92%
    10:00 -2°C° 2.2 mm 7 mps 695 mmHg 94%
    11:00 -1°C° 2.2 mm 6 mps 696 mmHg 97%
    12:00 0°C° 2.2 mm 5 mps 696 mmHg 99%
    13:00 0°C° 1.1 mm 5 mps 696 mmHg 99%
    14:00 0°C° 1.1 mm 5 mps 697 mmHg 99%
    15:00 -1°C° 1.1 mm 6 mps 697 mmHg 99%
    16:00 -1°C° 3.3 mm 7 mps 698 mmHg 99%
    17:00 -1°C° 3.3 mm 8 mps 698 mmHg 99%
    18:00 -2°C° 3.3 mm 10 mps 699 mmHg 99%
    19:00 0°C° 1 mm 8 mps 700 mmHg 99%
    20:00 0°C° 1 mm 7 mps 701 mmHg 99%
    21:00 +1°C° 1 mm 6 mps 702 mmHg 99%
    22:00 +1°C° 0.4 mm 5 mps 702 mmHg 99%
    23:00 0°C° 0.4 mm 5 mps 702 mmHg 99%

    25 Enero, Viernes

    Tiempo Temperatura Precipitaciones Viento Presión Humedad
    00:00 0°C° 0.4 mm 5 mps 703 mmHg 99%
    01:00 0°C° 0.1 mm 4 mps 702 mmHg 98%
    02:00 0°C° 0.1 mm 3 mps 702 mmHg 96%
    03:00 +1°C° 0.1 mm 2 mps 702 mmHg 95%
    04:00 +1°C° 0.1 mm 2 mps 702 mmHg 95%
    05:00 +1°C° 0.1 mm 2 mps 703 mmHg 96%
    06:00 +2°C° 0.1 mm 1 mps 703 mmHg 96%
    07:00 +1°C° 0.1 mm 2 mps 703 mmHg 96%
    08:00 +2°C° 0.1 mm 2 mps 704 mmHg 97%
    09:00 +1°C° 0.1 mm 3 mps 704 mmHg 97%
    10:00 +2°C° 0 mm 2 mps 704 mmHg 95%
    11:00 +3°C° 0 mm 2 mps 704 mmHg 94%
    12:00 +3°C° 0 mm 2 mps 704 mmHg 92%
    13:00 +3°C° 0.1 mm 2 mps 704 mmHg 92%
    14:00 +3°C° 0.1 mm 2 mps 704 mmHg 92%
    15:00 +3°C° 0.1 mm 2 mps 704 mmHg 92%
    16:00 +3°C° 0.1 mm 2 mps 704 mmHg 91%
    17:00 +2°C° 0.1 mm 2 mps 704 mmHg 91%
    18:00 +1°C° 0.1 mm 2 mps 705 mmHg 91%
    19:00 +1°C° 0.2 mm 2 mps 705 mmHg 91%
    20:00 +1°C° 0.2 mm 2 mps 705 mmHg 90%
    21:00 +1°C° 0.2 mm 2 mps 706 mmHg 89%
    22:00 +1°C° 0.7 mm 2 mps 706 mmHg 92%
    23:00 +1°C° 0.7 mm 2 mps 707 mmHg 95%
    Mostrar más